Skip Page Navigation
NASA JPL Caltech
NASA Logo - Jet Propulsion Laboratory + View the NASA Portal
+ Near-Earth Object (NEO) Program
Search JPL
JPL Home Earth Solar System Stars & Galaxies Technology
JPL Solar System Dynamics
BODIES ORBITS EPHEMERIDES TOOLS PHYSICAL DATA DISCOVERY FAQ SITE MAP
JPL Small-Body Database Browser
Search: [ help ]  
1021 Flammario (1924 RG)
Classification: Main-belt Asteroid          SPK-ID: 2001021
Ephemeris | Orbit Diagram | Orbital Elements | Physical Parameters | Discovery Circumstances ]

[ hide orbit diagram ]
Orbit Diagram
Note: Make sure you have Java enabled on your browser to see the applet. This applet is provided as a 3D orbit visualization tool. The applet was implemented using 2-body methods, and hence should not be used for determining accurate long-term trajectories (over several years or decades) or planetary encounter circumstances. For accurate long-term ephemerides, please instead use our Horizons system.
Orbit Viewer

Additional Notes: the orbits shown in the applet are color coded. The planets are white lines, and the asteroid/comet is a blue line. The bright white line indicates the portion of the orbit that is above the ecliptic plane, and the darker portion is below the ecliptic plane. Likewise for the asteroid/comet orbit, the light blue indicates the portion above the ecliptic plane, and the dark blue the portion below the ecliptic plane.

Orbit Viewer applet originally written and kindly provided by Osamu Ajiki (AstroArts), and further modified by Ron Baalke (JPL).


Orbital Elements at Epoch 2456400.5 (2013-Apr-18.0) TDB
Reference: JPL 10 (heliocentric ecliptic J2000)
 Element Value Uncertainty (1-sigma)   Units 
e .2844942458149726 5.2699e-08  
a 2.737427538337446 1.0797e-08 AU
q 1.958645155344997 1.441e-07 AU
i 15.86936622133938 7.5258e-06 deg
node 115.4578580998545 2.1004e-05 deg
peri 287.2744494007829 2.4968e-05 deg
M 338.7182686338422 1.4505e-05 deg
tp 2456498.295040499291
(2013-Jul-24.79504050)
6.6879e-05 JED
period 1654.292781635688
4.53
9.787e-06
2.68e-08
d
yr
n .2176156506250658 1.2874e-09 deg/d
Q 3.516209921329894 1.3868e-08 AU
  Orbit Determination Parameters
   # obs. used (total)      1067  
   data-arc span      31954 days (87.49 yr)  
   first obs. used      1925-05-18  
   last obs. used      2012-11-11  
   planetary ephem.      DE405  
   SB-pert. ephem.      SB405-CPV-2  
   condition code      0  
   fit RMS      .58919  
   data source      ORB  
   producer      Otto Matic  
   solution date      2013-Mar-29 14:17:23  

Additional Information
 Earth MOID = 1.033 AU 
 T_jup = 3.239 
[ show covariance matrix ]

Ephemeris | Orbit Diagram | Orbital Elements | Physical Parameters | Discovery Circumstances ]

Physical Parameter Table
Parameter Symbol Value Units Sigma Reference Notes
absolute magnitude H 8.98 mag n/a IRAS-A-FPA-3-RDR-IMPS-V6.0 IRAS observations used: 11
diameter diameter 99.39 km 2.3 IRAS-A-FPA-3-RDR-IMPS-V6.0 IRAS observations used: 11
rotation period rot_per 12.160 h n/a Asteroid Lightcurve DataBase (Rev. 2013-May-01) Published Reference List:
[Schober, H.J.; Erikson, A.; Hahn, G.; Lagerkvist, C.-I. (1993) Astron. Astrophys. Suppl. Ser.; 101, 499-505.]
[Hainaut-Rouelle, M.-C.; Hainaut, O.R.; Detal, A. (1995) Astron. Astrophys. Suppl. Ser. 112, 125-142.]
[Buchheim, R.K. (2005) Minor Planet Bul. 32, 79-80.]
[Behrend, R. (2005) Observatoire de Geneve web site, http://obswww.unige.ch/~behrend/page_cou.html]
[Behrend, R. (2010) Observatoire de Geneve web site, http://obswww.unige.ch/~behrend/page_cou.html]
geometric albedo albedo 0.0458   0.002 IRAS-A-FPA-3-RDR-IMPS-V6.0 IRAS observations used: 11
B-V BV .656 mag .014 EAR-A-5-DDR-UBV-MEAN-VALUES-V1.1 #obs=3; phase (min.=15.21, mean=22.50, max.=28.53) deg.
U-B UB .230 mag .046 EAR-A-5-DDR-UBV-MEAN-VALUES-V1.1 #obs=3; phase (min.=15.21, mean=22.50, max.=28.53) deg.
Tholen spectral type spec_T F   n/a EAR-A-5-DDR-TAXONOMY-V4.0 used 7 color indices
SMASSII spectral type spec_B B   n/a EAR-A-5-DDR-TAXONOMY-V4.0 based on a high-resolution spectrum by Xu et al. (1995) or Bus and Binzel (2002)

1021 Flammario (1924 RG)          Discovered 1924-Mar-11 by Wolf, M. at Heidelberg (024)
Reference: DISCOVERY.DBLast Updated: 2003-08-29

Alternate Designations
 1924 RG = 1977 UM = A910 CE 
Ephemeris | Orbit Diagram | Orbital Elements | Physical Parameters | Discovery Circumstances ]
ABOUT SSD CREDITS/AWARDS PRIVACY/COPYRIGHT GLOSSARY LINKS
FirstGov 2013-May-20 05:12 UT
(server date/time)  
NASA Home Page
Site Manager:   Donald K. Yeomans
Webmaster  Alan B. Chamberlin